TimeEST,TemperatureF,Dew PointF,Humidity,Sea Level PressureIn,VisibilityMPH,Wind Direction,Wind SpeedMPH,Gust SpeedMPH,PrecipitationIn,Events,Conditions,WindDirDegrees,DateUTC
12:06 AM,42.8,42.8,100,29.99,0.8,SSW,3.5,-,N/A,,Mostly Cloudy,210,2012-12-09 05:06:00
12:20 AM,39.2,39.2,100,29.99,0.2,Calm,Calm,-,N/A,Fog,Fog,0,2012-12-09 05:20:00
12:54 AM,37.9,37.9,100,30.01,0.2,Calm,Calm,-,N/A,Fog,Fog,0,2012-12-09 05:54:00
1:54 AM,36.0,35.1,97,30.05,0.2,WSW,3.5,-,N/A,Fog,Fog,240,2012-12-09 06:54:00
2:54 AM,36.0,35.1,97,30.07,0.5,WSW,3.5,-,0.00,Fog,Fog,240,2012-12-09 07:54:00
3:54 AM,39.0,39.0,100,30.08,0.2,NNE,4.6,-,0.00,Fog,Fog,30,2012-12-09 08:54:00
4:54 AM,39.0,39.0,100,30.13,0.5,Calm,Calm,-,0.00,Fog,Fog,0,2012-12-09 09:54:00
5:04 AM,39.2,39.2,100,30.13,1.2,Calm,Calm,-,N/A,,Overcast,0,2012-12-09 10:04:00
5:10 AM,41.0,39.2,93,30.13,3.0,Calm,Calm,-,N/A,,Overcast,0,2012-12-09 10:10:00
5:54 AM,41.0,39.9,96,30.15,2.5,Calm,Calm,-,0.00,Rain,Light Rain,0,2012-12-09 10:54:00
6:05 AM,41.0,41.0,100,30.15,1.8,Calm,Calm,-,N/A,,Overcast,0,2012-12-09 11:05:00
6:23 AM,42.8,39.2,87,30.17,2.0,NNE,3.5,-,N/A,,Overcast,30,2012-12-09 11:23:00
6:34 AM,42.8,41.0,93,30.17,6.0,NE,6.9,-,0.00,Rain,Light Rain,50,2012-12-09 11:34:00
6:42 AM,42.8,41.0,93,30.17,8.0,NE,3.5,-,0.00,,Overcast,40,2012-12-09 11:42:00
6:54 AM,43.0,41.0,93,30.19,7.0,Calm,Calm,-,0.00,,Overcast,0,2012-12-09 11:54:00
7:18 AM,42.8,39.2,87,30.20,5.0,NNE,3.5,-,N/A,,Overcast,20,2012-12-09 12:18:00
7:54 AM,42.1,39.0,89,30.22,10.0,East,9.2,-,N/A,,Overcast,80,2012-12-09 12:54:00
8:22 AM,39.2,35.6,87,30.23,10.0,NE,9.2,-,N/A,,Scattered Clouds,50,2012-12-09 13:22:00
8:54 AM,39.9,34.0,79,30.25,10.0,NE,6.9,-,N/A,,Clear,50,2012-12-09 13:54:00
9:54 AM,39.9,34.0,79,30.25,10.0,NE,8.1,-,N/A,,Clear,40,2012-12-09 14:54:00
10:54 AM,41.0,33.1,73,30.26,10.0,NE,5.8,-,N/A,,Partly Cloudy,50,2012-12-09 15:54:00
11:54 AM,43.0,30.0,60,30.24,10.0,NE,9.2,-,N/A,,Mostly Cloudy,50,2012-12-09 16:54:00
12:54 PM,44.1,30.0,58,30.22,10.0,NE,10.4,-,N/A,,Mostly Cloudy,40,2012-12-09 17:54:00
1:54 PM,44.1,30.0,58,30.21,10.0,NE,6.9,-,N/A,,Overcast,40,2012-12-09 18:54:00
2:54 PM,43.0,30.0,60,30.20,10.0,ENE,5.8,-,N/A,,Overcast,60,2012-12-09 19:54:00
3:54 PM,42.1,32.0,67,30.21,10.0,NE,3.5,-,0.00,Rain,Light Rain,50,2012-12-09 20:54:00
4:54 PM,41.0,33.1,73,30.22,10.0,NNE,4.6,-,0.00,,Overcast,20,2012-12-09 21:54:00
5:54 PM,39.9,33.1,77,30.21,10.0,NE,5.8,-,0.00,,Overcast,40,2012-12-09 22:54:00
6:46 PM,39.2,33.8,81,30.19,10.0,NE,5.8,-,0.00,Rain,Light Rain,40,2012-12-09 23:46:00
6:54 PM,39.0,34.0,82,30.20,10.0,NE,5.8,-,0.00,Rain,Light Rain,40,2012-12-09 23:54:00
7:54 PM,37.9,35.1,89,30.18,6.0,NNE,4.6,-,0.01,Rain,Light Rain,20,2012-12-10 00:54:00
8:20 PM,37.4,35.6,93,30.16,9.0,NNE,6.9,-,0.00,Rain,Light Rain,20,2012-12-10 01:20:00
8:54 PM,37.9,35.1,89,30.14,4.0,NNE,4.6,-,0.00,,Overcast,20,2012-12-10 01:54:00
9:36 PM,37.4,35.6,93,30.11,4.0,NNE,9.2,-,0.00,Rain,Light Rain,20,2012-12-10 02:36:00
9:54 PM,37.9,36.0,93,30.12,6.0,NNE,9.2,-,0.01,Rain,Light Rain,30,2012-12-10 02:54:00
10:16 PM,37.4,35.6,93,30.10,7.0,NNE,9.2,-,0.00,Rain,Light Rain,30,2012-12-10 03:16:00
10:54 PM,37.9,36.0,93,30.09,5.0,NNE,6.9,-,0.02,Rain,Light Rain,30,2012-12-10 03:54:00
11:54 PM,39.0,37.0,93,30.04,3.0,NNE,6.9,-,0.03,Rain,Rain,30,2012-12-10 04:54:00